Regional Weather Roundup
Issued by NWS

Home | Current Version | Previous Version | Text Only | Print | Product List | Glossary Off
Versions: 1 2 3 4 5 6 7 8 9 10 11 12 13 14 15 16 17 18 19 20 21 22 23 24 25 26 27 28 29 30 31 32 33 34 35 36 37 38 39 40 41 42 43 44 45 46 47 48 49 50

788
ASUS43 KOAX 262010
RWRNE

WEATHER ROUNDUP FOR NEBRASKA
NATIONAL WEATHER SERVICE OMAHA NE
300 PM CDT WED APR 26 2017

NOTES: SATELLITE DATA IS BEING USED TO AUGMENT CLOUD COVER ABOVE
       12000 FEET.
       "FAIR" INDICATES FEW OR NO CLOUDS BELOW 12,000 FEET WITH NO
       SIGNIFICANT WEATHER AND/OR OBSTRUCTIONS TO VISIBILITY.

  * THESE STATIONS DO NOT REPORT WEATHER SUCH AS RAIN...SNOW OR FOG.

NEZ001>004-019>022-054>056-262100-
NEBRASKA PANHANDLE

CITY           SKY/WX    TMP DP  RH WIND       PRES   REMARKS
SCOTTSBLUFF    SUNNY     56  32  40 VRB6      29.70F
ALLIANCE       MOSUNNY   49  35  58 N12G20    29.71F
CHADRON        PTSUNNY   41  31  67 VRB3      29.76F
KIMBALL        MOSUNNY   56  28  34 N13       29.71F
SIDNEY         SUNNY     55  33  43 N12G22    29.71F
$$

NEZ057>060-069>072-079>082-262100-
SOUTHWEST NEBRASKA

CITY           SKY/WX    TMP DP  RH WIND       PRES   REMARKS
NORTH PLATTE   SUNNY     50  31  48 N15G23    29.74F
IMPERIAL       SUNNY     54  32  43 N14G22    29.73F
LEXINGTON      MOSUNNY   48  33  55 N15G26    29.73S
MCCOOK         SUNNY     54  32  43 N12G23    29.73F
OGALLALA       SUNNY     54  31  42 N13G20    29.73
$$

NEZ005>010-023>029-035>040-094-262100-
NORTH CENTRAL NEBRASKA

CITY           SKY/WX    TMP DP  RH WIND       PRES   REMARKS
VALENTINE      CLOUDY    38  26  62 NW18G24   29.77F WCI  28
AINSWORTH      CLOUDY    38  30  73 NW20      29.75F WCI  28
BROKEN BOW     CLOUDY    42  30  62 N23G30    29.73F
O`NEILL        CLOUDY    42  30  61 NW20G30   29.73F
ORD            CLOUDY    41  30  65 N21       29.72F
THEDFORD       PTSUNNY   43  30  61 N17G26    29.75F
$$

NEZ041-046>049-061>064-073>077-083>087-262100-
SOUTH CENTRAL NEBRASKA

CITY           SKY/WX    TMP DP  RH WIND       PRES   REMARKS
GRAND ISLAND   CLOUDY    43  32  65 NW20G26   29.73F
AURORA         CLOUDY    45  32  61 NW18G28   29.71F
HASTINGS       CLOUDY    44  31  60 N18G28    29.74S
HEBRON         CLOUDY    47  32  57 N16G26    29.71S
HOLDREGE       CLOUDY    47  31  54 N15G23    29.73R
KEARNEY *      CLOUDY    45  28  53 N18G24    29.74F
YORK           CLOUDY    45  32  61 NW20      29.71R
$$

NEZ011>018-030>034-042>045-262100-
NORTHEAST NEBRASKA

CITY           SKY/WX    TMP DP  RH WIND       PRES   REMARKS
NORFOLK        CLOUDY    39  31  72 NW16G28   29.68F WCI  30
ALBION         CLOUDY    43  32  65 NW17G23   29.72S
BLAIR          CLOUDY    40  33  75 NW22      29.66R WCI  30
FREMONT        CLOUDY    40  33  75 NW18G28   29.69S WCI  31
TEKAMAH        CLOUDY    41  32  70 NW25      29.68S
WAYNE          CLOUDY    38  33  80 NW21G29   29.69S WCI  28
$$

NEZ050>053-065>068-078-088>093-262100-
SOUTHEAST NEBRASKA

CITY           SKY/WX    TMP DP  RH WIND       PRES   REMARKS
LINCOLN        CLOUDY    44  32  62 N20       29.70S
OMAHA EPPLEY   CLOUDY    43  33  68 N18G28    29.66R
BEATRICE       CLOUDY    44  35  69 NW20G25   29.70R
FALLS CITY     CLOUDY    48  36  63 NW17G25   29.64S
NEBRASKA CITY  CLOUDY    44  30  57 N17       29.68R
PLATTSMOUTH    CLOUDY    43  31  63 NW21      29.66S
$$

NEZ044-045-051>053-067-262100-
OMAHA AREA

CITY           SKY/WX    TMP DP  RH WIND       PRES   REMARKS
OMAHA EPPLEY   CLOUDY    43  33  68 N18G28    29.66R
BLAIR          CLOUDY    40  33  75 NW22      29.66R WCI  30
FREMONT        CLOUDY    40  33  75 NW18G28   29.69S WCI  31
MILLARD        CLOUDY    44  35  70 N10G20    29.68S
OFFUTT AFB     CLOUDY    43  33  68 NW20G28   29.66R
PLATTSMOUTH    CLOUDY    43  31  63 NW21      29.66S
WAHOO          CLOUDY    42  32  67 NW22G29   29.68R
$$




USA.gov is the U.S. government's official web portal to all federal, state and local government web resources and services.